Flag for Morocco Weather past 2 weeks in Marrakech, Morocco

Now
72 °F

Sunny.


Feels Like: 72 °F
Forecast: 66 / 96 °F
Wind: 7 mph from Northeast

Location: Marrakech Airport

Current Time: Aug 1, 2015 at 9:45:35 AM

Latest Report: Aug 1, 2015 at 9:00 AM


Visibility: 10 mi

Pressure: 29.89 "Hg

Humidity: 78%

Dew point: 64 °F

Location of MarrakechLocation

Historic Weather in Marrakech — Graph

°F

Marrakech temperature yesterday

Maximum temperature yesterday: 93 °F (at 6:30 PM)
Minimum temperature yesterday: 68 °F (at 6:30 AM)
Average temperature yesterday: 80 °F

Past Weeks' High & Low Weather Summary

 TemperatureHumidityPressure
High115 °F (Jul 22, 5:00 PM)94% (Jul 29, 7:00 AM)30.09 "Hg (Jul 29, 7:00 AM)
Low66 °F (Jul 26, 7:00 AM)8% (Jul 21, 5:00 PM)29.83 "Hg (Jul 30, 5:00 PM)
Average88 °F43%29.98 "Hg
* Reported Jul 17 7:00 AM — Aug 1 8:30 AM, Marrakech, Weather by CustomWeather, © 2015

Note: Actual official high and low records may vary slightly from our data, if they occured in-between our weather recording intervals... More about our weather records

Advertising

Marrakech weather history for previous 24 hours

 ConditionsComfort  
Time TempWeatherWind HumidityBarometerVisibility
8:30 AM
Sat, Aug 1
70 °FPassing clouds.8 mph83%29.89 "HgN/A
8:00 AM70 °FSunny.8 mph83%29.89 "Hg10 mi
7:30 AM70 °FSunny.9 mph83%29.89 "Hg10 mi
7:00 AM70 °FSunny.6 mph83%29.89 "Hg10 mi
6:30 AM70 °FPassing clouds.7 mph83%29.89 "HgN/A
6:00 AM70 °FPassing clouds.6 mph83%29.89 "HgN/A
5:30 AM70 °FClear.7 mph83%29.89 "Hg10 mi
5:00 AM72 °FClear.7 mph78%29.89 "Hg10 mi
4:30 AM72 °FMild.6 mph78%29.89 "HgN/A
4:00 AM72 °FClear.7 mph78%29.89 "Hg10 mi
3:30 AM73 °FClear.8 mph74%29.89 "Hg10 mi
3:00 AM73 °FClear.6 mph74%29.89 "Hg10 mi
2:30 AM73 °FClear.8 mph74%29.92 "Hg10 mi
2:00 AM73 °FPassing clouds.7 mph74%29.92 "HgN/A
1:30 AM73 °FClear.9 mph74%29.92 "Hg10 mi
1:00 AM75 °FClear.8 mph65%29.92 "Hg10 mi
12:30 AM75 °FPassing clouds.9 mph65%29.92 "HgN/A
12:00 AM77 °FPassing clouds.9 mph61%29.92 "HgN/A
11:30 PM
Fri, Jul 31
77 °FPassing clouds.10 mph61%29.92 "HgN/A
11:00 PM79 °FClear.12 mph58%29.92 "Hg10 mi
10:30 PM81 °FPassing clouds.14 mph54%29.92 "HgN/A
10:00 PM82 °FPassing clouds.12 mph51%29.89 "HgN/A
9:30 PM84 °FPassing clouds.12 mph45%29.89 "HgN/A
9:00 PM86 °FPassing clouds.13 mph43%29.86 "HgN/A
8:30 PM90 °FPassing clouds.7 mph38%29.86 "HgN/A
8:00 PM90 °FPassing clouds.7 mph41%29.86 "HgN/A
7:30 PM91 °FPassing clouds.6 mph38%29.86 "HgN/A
7:00 PM93 °FPassing clouds.3 mph34%29.86 "HgN/A
6:30 PM93 °FPassing clouds.3 mph36%29.86 "HgN/A
6:00 PM91 °FPassing clouds.6 mph38%29.86 "Hg6 mi
5:30 PM91 °FPassing clouds.6 mph38%29.86 "HgN/A
5:00 PM91 °FPassing clouds.6 mph38%29.86 "HgN/A
4:30 PM91 °FPassing clouds.3 mph38%29.86 "HgN/A
4:00 PM90 °FPassing clouds.3 mph41%29.86 "HgN/A
3:30 PM91 °FPassing clouds.6 mph41%29.89 "HgN/A
3:00 PM88 °FPassing clouds.2 mph46%29.89 "HgN/A
2:30 PM86 °FPassing clouds.3 mph49%29.92 "HgN/A
2:00 PM84 °FPassing clouds.5 mph55%29.92 "HgN/A
1:30 PM84 °FPassing clouds.5 mph55%29.92 "HgN/A
1:00 PM81 °FPassing clouds.6 mph62%29.92 "HgN/A
12:30 PM81 °FPartly sunny.5 mph62%29.92 "HgN/A
12:00 PM79 °FPartly sunny.6 mph65%29.92 "HgN/A
11:30 AM75 °FPartly sunny.5 mph78%29.92 "HgN/A
11:00 AM75 °FPartly sunny.5 mph74%29.92 "HgN/A
10:30 AM73 °FPartly sunny.7 mph78%29.92 "HgN/A
10:00 AM73 °FPartly sunny.8 mph78%29.92 "HgN/A
9:30 AM72 °FBroken clouds.8 mph83%29.92 "HgN/A
Weather by CustomWeather, © 2015

See weather overviewHow to use our weather pages